Regional Weather Roundup
Issued by NWS

Home | Current Version | Previous Version | Text Only | Print | Product List | Glossary On
Versions: 1 2 3 4 5 6 7 8 9 10 11 12 13 14 15 16 17 18 19 20 21 22 23 24 25 26 27 28 29 30 31 32 33 34 35 36 37 38 39 40 41 42 43 44 45 46 47 48 49 50
889
ASUS45 KABQ 200510
RWRNM
NEW MEXICO REGIONAL WEATHER ROUNDUP
NATIONAL WEATHER SERVICE ALBUQUERQUE NM
1000 PM MST FRI JAN 19 2018

NOTE: "FAIR" MEANS FEW OR NO CLOUDS BELOW 12,000 FEET AGL WITH NO
       SIGNIFICANT WEATHER OR OBSTRUCTIONS TO VISION.

      THIS PRODUCT IS RELEASED AS TWO VERSIONS.  ONE VERSION NEAR
      THE TOP OF THE HOUR CONTAINING PRELIMINARY DATA FROM ALBUQUERQUE
      AND OTHER STATIONS.  A FINAL VERSION WITH ADDITIONAL DATA IS
      ISSUED ABOUT 10 MINUTES AFTER THE HOUR.

NMZ501-503-504-510>518-200600-
NORTHWEST PLATEAU/NORTHCENTRAL MOUNTAINS

CITY           SKY/WX    TMP DP  RH WIND       PRES   REMARKS
FARMINGTON     FAIR      34  15  46 NE8       29.95R WCI  27
LOS ALAMOS     MOCLDY    42  12  29 S9        30.04R
SANTA FE       FAIR      43  13  29 W8        30.01R
TAOS           FAIR      30  12  47 CALM      30.06R
ANGEL FIRE     FAIR      18  10  71 S3        30.07S

$$
NMZ402-403-502-505>509-200600-
WESTCENTRAL MOUNTAINS/SOUTHWEST MOUNTAINS

CITY           SKY/WX    TMP DP  RH WIND       PRES   REMARKS
GALLUP         FAIR      33  11  39 CALM      30.03S
GRANTS         FAIR      28   8  42 CALM      30.06R
SILVER CITY    FAIR      36  12  37 N8        30.06S WCI  30

$$
NMZ407-409-411-412-200600-
SOUTHERN DESERTS

CITY           SKY/WX    TMP DP  RH WIND       PRES   REMARKS
DEMING         FAIR      41  13  31 SW7       30.03S
LAS CRUCES     FAIR      42  15  33 SW5       30.03S
HOLLOMAN AFB   FAIR      33   8  35 CALM      30.04R
ALAMOGORDO     FAIR      41  10  28 W6        30.03R
T OR C         FAIR      42  12  29 NW6       30.00S

$$
NMZ519>523-200600-
CENTRAL VALLEYS/CENTRAL HIGHLANDS

CITY           SKY/WX    TMP DP  RH WIND       PRES   REMARKS
ALBUQUERQUE    FAIR      39  13  34 E3        30.01R
DOUBLE EAGLE   CLEAR     28   9  43 CALM      30.02R
MORIARTY ARPT  FAIR      25   5  42 CALM      30.04R
CLINES CORNERS FAIR      35   8  32 W13       30.04R WCI  26
BELEN          FAIR      36   9  33 CALM      30.01R
SOCORRO        FAIR      38  12  34 SW6       30.01R WCI  33

$$
NMZ524>526-539-540-200600-
SOUTHCENTRAL MOUNTAINS

CITY           SKY/WX    TMP DP  RH WIND       PRES   REMARKS
RUIDOSO        NOT AVBL

$$
NMZ527>531-200600-
NORTHEAST HIGHLANDS/NORTHEAST PLAINS

CITY           SKY/WX    TMP DP  RH WIND       PRES   REMARKS
LAS VEGAS      FAIR      43  13  29 N5        29.98R
RATON          FAIR      39  13  34 E6        29.91S WCI  35
CLAYTON        FAIR      54  15  21 W13       29.81R

$$
NMZ532>537-200600-
EASTCENTRAL PLAINS

CITY           SKY/WX    TMP DP  RH WIND       PRES   REMARKS
TUCUMCARI      FAIR      46  13  26 W12       29.81R
CANNON AFB     FAIR      48  11  22 W15       29.87S
CLOVIS AIRPORT FAIR      50  11  20 W18       29.85S

$$
NMZ028-029-538-200600-
SOUTHEAST PLAINS

CITY           SKY/WX    TMP DP  RH WIND       PRES   REMARKS
ROSWELL        FAIR      41   9  26 CALM      29.90R
ARTESIA        FAIR      54  16  22 W18       29.90R
CARLSBAD       FAIR      48  12  23 S3        29.89S
HOBBS          FAIR      39  10  30 W7        29.91S WCI  34


$$




USA.gov is the U.S. government's official web portal to all federal, state and local government web resources and services.